QPF
0.00 0.00 0.00 0.00 0.00 0.00 0.00 0.00 0.00 0.00 0.00 0.00 0.00 0.00 0.00 0.00 0.00 0.00 0.00 0.00 0.00 0.00 0.00 0.00 0.00 0.00 0.00 0.00 0.00 0.00 0.00 0.00 0.00 0.00 0.00 0.00 0.00 0.00 0.00 0.00 0.00 0.00 0.00 0.00 0.00
0.00 0.00 0.00 0.00 0.00 0.00 0.00 0.00 0.00 0.00 0.00 0.00 0.00 0.00 0.00 0.00 0.00 0.00 0.00 0.00 0.00 0.00 0.00 0.00 0.00 0.00 0.00 0.00 0.00 0.00 0.00 0.00 0.00 0.00 0.00 0.00 0.00 0.00 0.00 0.00 0.00 0.00 0.00 0.00 0.00
0.00 0.00 0.00 0.00 0.00 0.00 0.00 0.00 0.00 0.00 0.00 0.00 0.00 0.00 0.00 0.00 0.00 0.00 0.00 0.00 0.00 0.00 0.00 0.00 0.00 0.00 0.00 0.00 0.00 0.00 0.00 0.00 0.00 0.00 0.00 0.00 0.00 0.00 0.00 0.00 0.00 0.00 0.00 0.00 0.00
0.00 0.00 0.00 0.00 0.00 0.00 0.00 0.00 0.00 0.00 0.00 0.00 0.00 0.00 0.00 0.00 0.00 0.00 0.00 0.00 0.00 0.00 0.00 0.00 0.00 0.00 0.00 0.00 0.00 0.00 0.00 0.00 0.00 0.00 0.00 0.00 0.00 0.00 0.00 0.00 0.00 0.00 0.00 0.00 0.00
0.00 0.00 0.00 0.00 0.00 0.00 0.00 0.00 0.00 0.00 0.00 0.00 0.00 0.00 0.00 0.00 0.00 0.00 0.00 0.00 0.00 0.00 0.00 0.00 0.00 0.00 0.00 0.00 0.00 0.00 0.00 0.00 0.00 0.00 0.00 0.00 0.00 0.00 0.00 0.00 0.00 0.00 0.00 0.00 0.00
0.00 0.00 0.00 0.00 0.00 0.00 0.00 0.00 0.00 0.00 0.00 0.00 0.00 0.00 0.00 0.00 0.00 0.00 0.00 0.00 0.00 0.00 0.00 0.00 0.00 0.00 0.00 0.00 0.00 0.00 0.00 0.00 0.00 0.00 0.00 0.00 0.00 0.00 0.00 0.00 0.00 0.00 0.00 0.00 0.00
0.00 0.00 0.00 0.00 0.00 0.00 0.00 0.00 0.00 0.00 0.00 0.00 0.00 0.00 0.00 0.00 0.00 0.00 0.00 0.00 0.00 0.00 0.00 0.00 0.00 0.00 0.00 0.00 0.00 0.00 0.00 0.00 0.00 0.00 0.00 0.00 0.00 0.00 0.00 0.00 0.00 0.00 0.00 0.00 0.00
0.00 0.00 0.00 0.00 0.00 0.00 0.00 0.00 0.00 0.00 0.00 0.00 0.00 0.00 0.00 0.00 0.00 0.00 0.00 0.00 0.00 0.00 0.00 0.00 0.00 0.00 0.00 0.00 0.00 0.00 0.00 0.00 0.00 0.00 0.00 0.00 0.00 0.00 0.00 0.00 0.00 0.00 0.00 0.00 0.00
0.00 0.00 0.00 0.00 0.00 0.00 0.00 0.00 0.00 0.00 0.00 0.00 0.00 0.00 0.00 0.00 0.00 0.00 0.00 0.00 0.00 0.00 0.00 0.00 0.00 0.00 0.00 0.00 0.00 0.00 0.00 0.00 0.00 0.00 0.00 0.00 0.00 0.00 0.00 0.00 0.00 0.00 0.00 0.00 0.00
0.00 0.00 0.00 0.00 0.00 0.00 0.00 0.00 0.00 0.00 0.00 0.00 0.00 0.00 0.00 0.00 0.00 0.00 0.00 0.00 0.00 0.00 0.00 0.00 0.00 0.00 0.00 0.00 0.00 0.00 0.00 0.00 0.00 0.00 0.00 0.00 0.00 0.00 0.00 0.00 0.00 0.00 0.00 0.00 0.00
0.00 0.00 0.00 0.00 0.00 0.00 0.00 0.00 0.00 0.00 0.00 0.00 0.00 0.00 0.00 0.00 0.00 0.00 0.00 0.00 0.00 0.00 0.00 0.00 0.00 0.00 0.00 0.00 0.00 0.00 0.00 0.00 0.00 0.00 0.00 0.00 0.00 0.00 0.00 0.00 0.00 0.00 0.00 0.00 0.00
0.00 0.00 0.00 0.00 0.00 0.00 0.00 0.00 0.00 0.00 0.00 0.00 0.00 0.00 0.00 0.00 0.00 0.00 0.00 0.00 0.00 0.00 0.00 0.00 0.00 0.00 0.00 0.00 0.00 0.00 0.00 0.00 0.00 0.00 0.00 0.00 0.00 0.00 0.00 0.00 0.00 0.00 0.00 0.00 0.00
0.00 0.00 0.00 0.00 0.00 0.00 0.00 0.00 0.00 0.00 0.00 0.00 0.00 0.00 0.00 0.00 0.00 0.00 0.00 0.00 0.00 0.00 0.00 0.00 0.00 0.00 0.00 0.00 0.00 0.00 0.00 0.00 0.00 0.00 0.00 0.00 0.00 0.00 0.00 0.00 0.00 0.00 0.00 0.00 0.00
0.00 0.00 0.00 0.00 0.00 0.00 0.00 0.00 0.00 0.00 0.00 0.00 0.00 0.00 0.00 0.00 0.00 0.00 0.00 0.00 0.00 0.00 0.00 0.00 0.00 0.00 0.00 0.00 0.00 0.00 0.00 0.00 0.00 0.00 0.00 0.00 0.00 0.00 0.00 0.00 0.00 0.00 0.00 0.00 0.00
0.00 0.00 0.00 0.00 0.00 0.00 0.00 0.00 0.00 0.00 0.00 0.00 0.00 0.00 0.00 0.00 0.00 0.00 0.00 0.00 0.00 0.00 0.00 0.00 0.00 0.00 0.00 0.00 0.00 0.00 0.00 0.00 0.00 0.00 0.00 0.00 0.00 0.00 0.00 0.00 0.00 0.00 0.00 0.00 0.00
0.00 0.00 0.00 0.00 0.00 0.00 0.00 0.00 0.00 0.00 0.00 0.00 0.00 0.00 0.00 0.00 0.00 0.00 0.00 0.00 0.00 0.00 0.00 0.00 0.00 0.00 0.00 0.00 0.00 0.00 0.00 0.00 0.00 0.00 0.00 0.00 0.00 0.00 0.00 0.00 0.00 0.00 0.00 0.00 0.00
0.00 0.00 0.00 0.00 0.00 0.00 0.00 0.00 0.00 0.00 0.00 0.00 0.00 0.00 0.00 0.00 0.00 0.00 0.00 0.00 0.00 0.00 0.00 0.00 0.00 0.00 0.00 0.00 0.00 0.00 0.00 0.00 0.00 0.00 0.00 0.00 0.00 0.00 0.00 0.00 0.00 0.00 0.00 0.00 0.00
0.00 0.00 0.00 0.00 0.00 0.00 0.00 0.00 0.00 0.00 0.00 0.00 0.00 0.00 0.00 0.00 0.00 0.00 0.00 0.00 0.00 0.00 0.00 0.00 0.00 0.00 0.00 0.00 0.00 0.00 0.00 0.00 0.00 0.00 0.00 0.00 0.00 0.00 0.00 0.00 0.00 0.00 0.00 0.00 0.00
0.00 0.00 0.00 0.00 0.00 0.00 0.00 0.00 0.00 0.00 0.00 0.00 0.00 0.00 0.00 0.00 0.00 0.00 0.00 0.00 0.00 0.00 0.00 0.00 0.00 0.00 0.00 0.00 0.00 0.00 0.00 0.00 0.00 0.00 0.00 0.00 0.00 0.00 0.00 0.00 0.00 0.00 0.00 0.00 0.00
0.00 0.00 0.00 0.00 0.00 0.00 0.00 0.00 0.00 0.00 0.00 0.00 0.00 0.00 0.00 0.00 0.00 0.00 0.00 0.00 0.00 0.00 0.00 0.00 0.00 0.00 0.00 0.00 0.00 0.00 0.00 0.00 0.00 0.00 0.00 0.00 0.00 0.00 0.00 0.00 0.00 0.00 0.00 0.00 0.00
0.00 0.00 0.00 0.00 0.00 0.00 0.00 0.00 0.00 0.00 0.00 0.00 0.00 0.00 0.00 0.00 0.00 0.00 0.00 0.00 0.00 0.00 0.00 0.00 0.00 0.00 0.00 0.00 0.00 0.00 0.00 0.00 0.00 0.00 0.00 0.00 0.00 0.00 0.00 0.00 0.00 0.00 0.00 0.00 0.00
0.00 0.00 0.00 0.00 0.00 0.00 0.00 0.00 0.00 0.00 0.00 0.00 0.00 0.00 0.00 0.00 0.00 0.00 0.00 0.00 0.00 0.00 0.00 0.00 0.00 0.00 0.00 0.00 0.00 0.00 0.00 0.00 0.00 0.00 0.00 0.00 0.00 0.00 0.00 0.00 0.00 0.00 0.00 0.00 0.00
0.00 0.00 0.00 0.00 0.00 0.00 0.00 0.00 0.00 0.00 0.00 0.00 0.00 0.00 0.00 0.00 0.00 0.00 0.00 0.00 0.00 0.00 0.00 0.00 0.00 0.00 0.00 0.00 0.00 0.00 0.00 0.00 0.00 0.00 0.00 0.00 0.00 0.00 0.00 0.00 0.00 0.00 0.00 0.00 0.00
0.00 0.00 0.00 0.00 0.00 0.00 0.00 0.00 0.00 0.00 0.00 0.00 0.00 0.00 0.00 0.00 0.00 0.00 0.00 0.00 0.00 0.00 0.00 0.00 0.00 0.00 0.00 0.00 0.00 0.00 0.00 0.00 0.00 0.00 0.00 0.00 0.00 0.00 0.00 0.00 0.00 0.00 0.00 0.00 0.00
0.00 0.00 0.00 0.00 0.00 0.00 0.00 0.00 0.00 0.00 0.00 0.00 0.00 0.00 0.00 0.00 0.00 0.00 0.00 0.00 0.00 0.00 0.00 0.00 0.00 0.00 0.00 0.00 0.00 0.00 0.00 0.00 0.00 0.00 0.00 0.00 0.00 0.00 0.00 0.00 0.00 0.00 0.00 0.00 0.00
0.00 0.00 0.00 0.00 0.00 0.00 0.00 0.00 0.00 0.00 0.00 0.00 0.00 0.00 0.00 0.00 0.00 0.00 0.00 0.00 0.00 0.00 0.00 0.00 0.00 0.00 0.00 0.00 0.00 0.00 0.00 0.00 0.00 0.00 0.00 0.00 0.00 0.00 0.00 0.00 0.00 0.00 0.00 0.00 0.00
0.00 0.00 0.00 0.00 0.00 0.00 0.00 0.00 0.00 0.00 0.00 0.00 0.00 0.00 0.00 0.00 0.00 0.00 0.00 0.00 0.00 0.00 0.00 0.00 0.00 0.00 0.00 0.00 0.00 0.00 0.00 0.00 0.00 0.00 0.00 0.00 0.00 0.00 0.00 0.00 0.00 0.00 0.00 0.00 0.00
MSLP
1019.09 1018.74 1018.48 1018.16 1017.82 1017.47 1017.12 1016.69 1016.23 1015.91 1015.62 1015.21 1014.64 1013.87 1013.16 1012.53 1011.24 1010.80 1009.78 1007.82 1007.58 1007.63 1008.06 1008.47 1008.87 1008.90 1009.13 1009.48 1009.73 1010.36 1011.43 1012.10 1011.48 1010.97 1010.64 1010.70 1011.27 1012.14 1012.91 1013.94 1014.91 1015.51 1016.16 1016.57 1018.27
1019.11 1018.77 1018.48 1018.17 1017.85 1017.45 1017.02 1016.62 1016.34 1015.99 1015.42 1015.02 1014.36 1013.67 1013.12 1012.61 1011.73 1009.78 1007.09 1006.79 1007.15 1007.58 1007.95 1008.02 1008.30 1008.60 1009.11 1009.32 1009.59 1010.20 1011.18 1010.82 1009.80 1009.57 1009.81 1010.40 1010.97 1011.93 1013.10 1014.22 1015.30 1015.98 1016.55 1017.11 1018.38
1019.18 1018.90 1018.48 1018.08 1017.80 1017.41 1017.07 1016.63 1016.18 1015.79 1015.29 1014.93 1014.40 1013.52 1012.78 1012.46 1011.41 1008.11 1006.57 1006.64 1006.85 1007.39 1007.51 1007.49 1007.65 1007.93 1008.57 1008.91 1009.12 1009.51 1009.74 1009.28 1008.85 1008.83 1009.37 1010.48 1011.44 1011.92 1012.94 1014.35 1014.23 1014.97 1016.57 1017.50 1018.29
1019.00 1018.80 1018.49 1018.00 1017.60 1017.28 1016.84 1016.34 1015.94 1015.60 1015.26 1014.86 1014.20 1013.46 1012.49 1012.26 1010.35 1007.27 1006.77 1007.03 1007.54 1007.55 1007.53 1007.35 1007.49 1007.72 1008.14 1008.37 1008.24 1008.70 1008.29 1008.30 1008.24 1008.64 1009.58 1010.74 1011.16 1011.95 1012.38 1012.49 1012.47 1014.11 1015.25 1016.69 1017.79
1018.89 1018.66 1018.37 1018.03 1017.61 1017.21 1016.56 1016.19 1015.73 1015.34 1014.88 1014.67 1014.19 1013.60 1012.58 1011.81 1009.27 1007.07 1006.93 1007.13 1007.16 1007.45 1007.30 1007.19 1007.24 1007.34 1007.68 1007.64 1007.75 1007.89 1007.66 1008.05 1008.21 1008.90 1009.65 1010.42 1011.00 1011.73 1012.51 1012.91 1013.24 1014.55 1015.98 1016.70 1017.41
1018.74 1018.43 1018.26 1017.95 1017.50 1017.03 1016.54 1016.03 1015.44 1015.00 1014.61 1014.56 1014.01 1013.83 1013.32 1011.31 1007.31 1006.94 1006.99 1006.91 1006.90 1007.12 1006.99 1006.90 1006.73 1006.87 1007.08 1007.18 1007.26 1007.08 1007.50 1008.15 1008.58 1009.23 1009.93 1010.58 1011.33 1011.84 1012.75 1013.29 1014.18 1014.86 1015.75 1016.47 1017.17
1018.65 1018.37 1018.05 1017.74 1017.31 1016.91 1016.28 1015.55 1014.97 1014.60 1014.37 1014.25 1013.89 1013.83 1012.74 1009.19 1007.04 1006.99 1007.08 1006.79 1006.53 1006.74 1006.87 1006.37 1006.23 1006.71 1006.89 1006.97 1006.81 1007.34 1008.21 1008.61 1009.12 1009.52 1009.93 1010.56 1012.12 1011.92 1012.47 1013.53 1014.37 1015.11 1015.66 1016.40 1017.12
1018.48 1018.23 1017.89 1017.48 1017.02 1016.45 1015.77 1015.14 1014.38 1013.97 1013.82 1013.78 1013.55 1013.42 1011.35 1007.82 1007.39 1007.10 1006.70 1006.27 1006.05 1006.26 1006.41 1005.96 1006.07 1006.39 1006.94 1007.12 1007.45 1008.09 1008.77 1009.39 1009.15 1009.67 1009.88 1010.55 1011.31 1011.38 1012.48 1013.32 1014.51 1015.17 1015.67 1016.26 1017.26
1018.29 1018.03 1017.69 1017.28 1016.87 1016.16 1015.32 1014.42 1013.50 1013.27 1013.29 1013.50 1013.46 1012.95 1010.35 1007.42 1007.32 1006.13 1006.14 1006.29 1006.02 1005.87 1005.83 1005.87 1006.12 1007.13 1007.41 1008.02 1008.86 1009.39 1009.62 1009.81 1009.69 1009.56 1010.14 1010.90 1011.20 1011.20 1012.45 1013.31 1014.21 1014.82 1015.36 1016.34 1017.59
1018.07 1017.84 1017.48 1016.99 1016.53 1015.83 1014.88 1013.49 1012.69 1012.91 1013.03 1013.11 1012.63 1012.67 1009.27 1007.90 1007.10 1006.20 1005.91 1006.00 1006.08 1006.17 1006.32 1006.60 1007.57 1008.19 1008.73 1009.18 1009.51 1009.69 1009.99 1009.96 1009.86 1009.57 1010.17 1010.80 1010.82 1011.56 1012.52 1013.17 1013.62 1014.37 1015.32 1016.43 1017.68
1017.85 1017.63 1017.31 1016.88 1016.39 1015.81 1014.95 1013.43 1013.47 1013.11 1012.68 1012.18 1011.71 1010.57 1009.06 1008.10 1006.79 1006.21 1005.73 1005.73 1006.12 1006.87 1007.46 1007.74 1008.54 1008.74 1009.07 1009.22 1009.45 1009.48 1009.87 1010.08 1009.54 1009.19 1010.01 1009.95 1010.19 1011.26 1012.34 1013.15 1013.54 1014.03 1015.14 1016.55 1017.93
1017.82 1017.53 1017.07 1016.68 1016.18 1015.59 1015.42 1014.96 1015.04 1015.00 1013.46 1011.31 1010.67 1010.13 1008.99 1008.85 1008.51 1006.67 1005.94 1006.19 1006.57 1007.39 1007.90 1008.55 1008.68 1008.70 1008.82 1009.12 1009.39 1009.63 1009.83 1009.72 1009.21 1008.67 1009.60 1009.89 1010.17 1011.08 1011.98 1011.55 1011.62 1012.83 1014.52 1016.14 1017.77
1017.70 1017.45 1016.88 1016.54 1015.88 1015.56 1015.53 1015.17 1014.60 1014.29 1013.91 1010.95 1009.74 1008.77 1008.06 1008.27 1008.02 1006.72 1006.44 1006.41 1006.81 1007.60 1008.15 1008.65 1008.48 1008.30 1008.62 1008.75 1009.17 1009.18 1009.52 1009.33 1009.23 1009.15 1009.38 1009.95 1010.32 1010.55 1010.79 1010.88 1011.61 1012.51 1014.13 1016.00 1017.49
1017.62 1017.26 1016.81 1016.33 1016.13 1016.30 1015.49 1014.76 1014.48 1014.19 1013.74 1010.53 1008.88 1007.18 1007.05 1007.20 1007.19 1006.16 1006.08 1006.60 1007.07 1007.56 1008.22 1008.47 1007.98 1008.16 1008.24 1008.50 1008.60 1008.83 1008.12 1008.46 1009.07 1009.57 1010.05 1010.10 1010.38 1010.12 1010.02 1010.46 1011.03 1012.74 1014.20 1015.98 1017.82
1017.56 1017.11 1016.93 1016.74 1016.95 1016.24 1015.49 1014.70 1014.30 1014.16 1012.41 1009.03 1007.52 1005.96 1006.29 1006.72 1006.59 1006.15 1005.99 1006.44 1007.17 1007.67 1008.38 1008.23 1007.93 1007.94 1007.99 1007.69 1007.52 1007.83 1007.81 1008.54 1009.02 1009.90 1010.40 1010.69 1011.13 1009.76 1010.13 1010.59 1011.47 1012.35 1014.02 1015.85 1017.64
1017.36 1017.11 1017.19 1016.72 1017.03 1015.75 1015.17 1014.69 1014.51 1014.05 1010.98 1008.13 1006.76 1006.31 1006.70 1006.64 1006.60 1006.44 1006.33 1006.45 1007.10 1007.75 1008.17 1008.21 1007.62 1007.42 1007.16 1006.90 1007.04 1007.50 1008.26 1009.16 1010.08 1010.77 1011.27 1011.03 1011.48 1010.82 1011.11 1011.76 1011.79 1012.27 1014.37 1016.44 1018.23
1017.24 1017.09 1017.24 1016.87 1016.33 1015.53 1015.05 1015.01 1014.88 1012.80 1009.99 1008.30 1007.13 1006.70 1006.80 1007.05 1007.12 1007.20 1007.44 1007.70 1008.23 1008.57 1009.02 1008.56 1007.74 1007.01 1006.63 1006.93 1007.20 1007.92 1009.31 1010.48 1011.30 1011.78 1012.12 1011.52 1011.95 1011.33 1011.87 1012.72 1013.05 1014.06 1015.56 1017.23 1018.65
1016.99 1017.01 1016.96 1016.30 1015.71 1015.81 1015.49 1015.48 1014.55 1011.83 1010.11 1008.50 1007.62 1007.19 1007.40 1007.35 1007.57 1007.83 1008.39 1009.22 1009.28 1009.21 1009.62 1009.30 1008.40 1007.27 1006.94 1006.89 1007.22 1008.11 1009.32 1010.94 1011.91 1012.68 1012.57 1011.98 1012.14 1012.07 1013.26 1013.99 1014.41 1015.55 1017.03 1018.59 1020.08
1017.01 1017.02 1016.85 1015.63 1015.65 1016.01 1015.94 1015.79 1013.89 1011.77 1010.11 1009.15 1008.32 1008.17 1008.12 1007.83 1008.13 1008.76 1009.84 1010.36 1010.18 1009.98 1010.14 1009.66 1008.79 1007.53 1006.92 1006.87 1007.33 1008.47 1009.44 1010.26 1011.67 1012.92 1013.24 1012.86 1012.44 1013.01 1014.25 1015.55 1016.48 1017.42 1018.56 1019.99 1021.24
1017.18 1016.96 1016.33 1015.46 1015.53 1015.95 1016.02 1015.34 1013.58 1011.65 1010.19 1009.33 1009.19 1009.18 1009.21 1009.11 1009.22 1009.72 1010.58 1010.98 1010.77 1010.51 1010.41 1010.24 1009.65 1008.50 1007.64 1007.44 1007.72 1008.25 1009.42 1010.71 1012.26 1013.46 1013.89 1013.70 1013.82 1014.46 1015.24 1016.51 1017.82 1018.96 1020.18 1021.37 1022.43
1017.26 1016.84 1015.97 1015.53 1015.74 1016.36 1016.53 1015.26 1013.41 1011.43 1010.46 1009.60 1009.52 1009.64 1009.82 1009.95 1010.17 1010.92 1011.51 1011.36 1011.20 1010.97 1010.77 1010.85 1010.53 1009.82 1008.95 1009.45 1009.37 1009.48 1010.37 1011.48 1012.67 1013.75 1014.51 1014.99 1015.17 1015.48 1015.70 1016.26 1017.73 1019.54 1020.96 1021.87 1022.70
1017.24 1017.15 1016.15 1015.87 1016.74 1017.10 1016.46 1014.68 1013.15 1011.83 1010.49 1009.86 1009.74 1009.96 1010.19 1010.45 1011.12 1011.52 1011.85 1011.73 1011.35 1011.45 1011.75 1011.78 1011.83 1011.61 1011.15 1010.64 1010.33 1010.68 1011.40 1012.10 1013.40 1014.37 1015.02 1015.65 1015.84 1016.00 1016.10 1017.17 1018.77 1020.39 1021.50 1022.53 1023.56
1017.34 1017.01 1016.25 1016.16 1017.16 1017.19 1016.01 1014.44 1013.13 1012.17 1011.29 1010.62 1010.48 1010.35 1010.54 1011.04 1011.72 1012.04 1012.14 1012.17 1011.82 1011.90 1012.50 1012.52 1013.17 1012.98 1012.34 1011.92 1011.63 1012.23 1012.64 1012.78 1013.51 1014.51 1015.58 1016.60 1016.60 1017.03 1017.83 1018.91 1020.21 1021.25 1022.38 1023.32 1024.03
1017.53 1017.43 1017.25 1017.18 1017.22 1016.73 1015.83 1014.47 1013.20 1011.98 1011.61 1011.15 1011.08 1010.92 1011.17 1011.68 1011.73 1012.25 1012.53 1012.72 1012.54 1012.64 1012.87 1013.01 1014.31 1014.32 1014.15 1013.93 1013.76 1014.05 1014.21 1014.00 1014.41 1015.65 1016.48 1017.04 1017.38 1018.00 1019.18 1020.25 1021.29 1022.20 1022.94 1023.72 1024.57
1017.32 1017.04 1016.45 1017.17 1017.09 1016.44 1015.56 1014.39 1013.27 1012.35 1011.83 1011.57 1011.84 1011.99 1012.00 1012.57 1012.60 1012.93 1012.93 1013.02 1013.03 1013.15 1013.36 1014.01 1015.46 1015.40 1015.20 1014.93 1014.91 1015.32 1015.46 1015.47 1015.80 1016.45 1017.10 1017.71 1018.28 1019.03 1019.76 1020.70 1021.81 1022.64 1023.39 1024.16 1024.98
1017.18 1016.91 1016.48 1016.32 1016.13 1016.17 1015.50 1014.28 1013.37 1012.53 1012.24 1012.25 1012.61 1012.79 1012.56 1013.04 1013.09 1013.16 1013.18 1013.49 1013.77 1013.85 1014.28 1015.06 1016.14 1016.37 1016.45 1016.17 1016.00 1016.47 1016.56 1016.50 1016.89 1017.31 1017.76 1018.26 1018.95 1019.55 1020.34 1021.03 1022.06 1022.84 1023.82 1024.65 1025.38
1016.85 1016.41 1016.28 1016.09 1016.21 1016.00 1015.15 1013.99 1013.13 1012.57 1012.72 1012.61 1012.94 1013.26 1013.46 1013.46 1013.35 1013.45 1013.49 1013.74 1013.89 1014.33 1015.11 1015.78 1016.68 1017.64 1017.68 1017.29 1016.99 1017.30 1017.40 1017.34 1017.79 1018.19 1018.57 1018.95 1019.54 1020.22 1021.14 1021.75 1022.49 1023.17 1023.68 1024.29 1025.00
Thickness
5676 5680 5684 5688 5693 5698 5702 5708 5713 5717 5719 5723 5729 5737 5744 5750 5764 5770 5773 5795 5803 5809 5810 5807 5804 5804 5804 5795 5796 5788 5746 5732 5748 5761 5769 5779 5770 5771 5766 5750 5748 5745 5737 5737 5721
5673 5677 5680 5683 5688 5694 5699 5705 5708 5713 5718 5723 5729 5736 5741 5747 5757 5766 5799 5806 5807 5808 5803 5799 5794 5797 5786 5786 5785 5770 5740 5749 5776 5785 5780 5780 5774 5766 5757 5745 5737 5734 5734 5729 5717
5670 5673 5677 5681 5684 5689 5694 5700 5707 5712 5717 5720 5726 5734 5742 5747 5753 5772 5800 5804 5806 5806 5806 5806 5802 5798 5784 5785 5780 5770 5759 5773 5788 5793 5787 5772 5767 5768 5751 5737 5745 5740 5727 5722 5715
5669 5672 5675 5679 5683 5686 5692 5699 5704 5710 5714 5718 5725 5732 5742 5745 5728 5783 5796 5797 5795 5799 5799 5797 5792 5785 5778 5776 5785 5770 5783 5786 5793 5792 5781 5767 5768 5762 5760 5763 5768 5750 5739 5726 5715
5668 5671 5674 5676 5680 5683 5691 5696 5702 5708 5714 5717 5722 5728 5737 5734 5746 5785 5790 5793 5796 5795 5789 5787 5782 5782 5773 5781 5783 5775 5788 5791 5793 5785 5778 5772 5768 5766 5756 5757 5756 5744 5731 5722 5714
5666 5670 5672 5675 5679 5683 5687 5693 5700 5707 5713 5715 5721 5723 5727 5719 5779 5784 5788 5791 5793 5792 5791 5791 5787 5791 5783 5781 5779 5789 5787 5783 5783 5778 5773 5763 5761 5766 5752 5752 5744 5739 5728 5721 5713
5663 5667 5671 5674 5678 5681 5687 5694 5701 5706 5711 5714 5718 5720 5722 5738 5779 5783 5785 5788 5796 5794 5787 5797 5800 5789 5789 5780 5794 5784 5770 5775 5771 5768 5765 5763 5746 5750 5751 5747 5738 5733 5726 5718 5709
5660 5665 5669 5674 5679 5684 5690 5695 5703 5708 5711 5713 5717 5719 5720 5767 5776 5779 5784 5786 5796 5796 5794 5801 5801 5790 5784 5788 5774 5769 5759 5742 5765 5762 5764 5757 5734 5757 5745 5742 5730 5725 5720 5713 5701
5657 5662 5668 5673 5677 5684 5692 5699 5707 5710 5711 5711 5714 5716 5720 5769 5763 5781 5786 5776 5785 5793 5796 5800 5794 5773 5774 5752 5738 5738 5728 5734 5745 5756 5751 5743 5736 5753 5742 5737 5727 5722 5716 5707 5692
5654 5659 5665 5672 5677 5685 5693 5704 5710 5710 5709 5710 5715 5707 5738 5744 5762 5775 5780 5778 5774 5777 5773 5773 5756 5746 5740 5732 5711 5726 5726 5729 5732 5753 5741 5733 5739 5737 5734 5730 5727 5719 5710 5699 5686
5650 5655 5662 5668 5675 5682 5690 5702 5697 5700 5706 5707 5712 5715 5732 5748 5766 5766 5778 5774 5769 5755 5737 5750 5734 5725 5737 5741 5743 5741 5729 5725 5736 5752 5738 5740 5751 5731 5726 5723 5716 5714 5706 5690 5678
5644 5650 5657 5665 5672 5680 5682 5688 5683 5683 5683 5712 5715 5716 5732 5738 5727 5749 5770 5751 5748 5729 5739 5728 5720 5739 5745 5742 5737 5732 5724 5722 5735 5750 5736 5734 5735 5727 5723 5731 5732 5720 5707 5689 5673
5639 5645 5653 5661 5670 5676 5677 5681 5686 5688 5675 5702 5716 5719 5728 5733 5724 5736 5753 5746 5738 5729 5727 5715 5731 5745 5740 5733 5729 5727 5720 5723 5725 5738 5740 5728 5719 5726 5726 5730 5723 5719 5705 5684 5668
5634 5641 5648 5657 5665 5663 5673 5680 5684 5687 5660 5692 5709 5723 5732 5735 5725 5750 5755 5744 5732 5722 5722 5720 5739 5735 5729 5723 5723 5709 5738 5737 5732 5715 5698 5723 5684 5722 5730 5722 5721 5707 5692 5678 5660
5628 5636 5641 5648 5648 5660 5669 5677 5683 5680 5651 5711 5717 5746 5736 5724 5730 5739 5753 5740 5719 5721 5715 5714 5728 5725 5718 5726 5734 5723 5745 5737 5728 5711 5703 5702 5684 5711 5723 5721 5713 5704 5690 5674 5654
5623 5630 5634 5641 5642 5658 5667 5674 5675 5652 5658 5706 5722 5718 5713 5721 5723 5732 5735 5744 5734 5719 5719 5717 5734 5733 5730 5741 5742 5741 5729 5713 5700 5691 5671 5697 5681 5689 5701 5702 5703 5707 5682 5665 5644
5618 5624 5628 5633 5643 5655 5663 5665 5642 5641 5697 5701 5708 5715 5711 5705 5708 5715 5712 5710 5696 5690 5689 5704 5716 5731 5741 5726 5733 5721 5696 5663 5663 5657 5659 5694 5679 5690 5699 5687 5691 5679 5667 5651 5636
5614 5619 5623 5632 5642 5647 5654 5648 5639 5672 5680 5704 5706 5709 5697 5704 5701 5704 5695 5678 5695 5695 5678 5678 5674 5717 5728 5723 5713 5713 5698 5660 5655 5649 5662 5685 5673 5688 5677 5673 5674 5666 5652 5634 5615
5609 5613 5618 5632 5638 5640 5640 5625 5640 5667 5687 5687 5695 5689 5687 5699 5699 5685 5675 5672 5684 5688 5678 5676 5685 5719 5729 5733 5726 5706 5691 5701 5674 5663 5646 5660 5681 5685 5666 5655 5650 5643 5631 5610 5599
5601 5607 5616 5627 5633 5633 5628 5626 5647 5673 5684 5688 5674 5680 5668 5675 5681 5670 5668 5678 5677 5691 5692 5689 5678 5708 5718 5727 5721 5715 5707 5678 5659 5651 5646 5651 5659 5654 5661 5645 5635 5622 5604 5594 5582
5594 5603 5614 5621 5625 5617 5612 5624 5649 5673 5680 5681 5676 5673 5673 5669 5669 5661 5660 5676 5681 5684 5690 5684 5681 5687 5703 5690 5689 5687 5677 5672 5664 5648 5636 5620 5637 5652 5649 5646 5631 5610 5595 5583 5572
5588 5594 5607 5613 5600 5591 5611 5630 5653 5663 5677 5681 5681 5675 5671 5667 5660 5659 5660 5670 5680 5682 5674 5678 5668 5662 5676 5688 5694 5689 5679 5666 5643 5646 5636 5624 5625 5638 5639 5633 5618 5601 5588 5572 5560
5582 5591 5601 5605 5593 5598 5613 5635 5650 5655 5662 5668 5668 5675 5673 5665 5652 5657 5662 5674 5676 5676 5671 5674 5649 5641 5656 5669 5674 5663 5665 5670 5653 5639 5633 5616 5618 5627 5620 5611 5601 5586 5571 5556 5546
5575 5579 5586 5591 5591 5606 5616 5627 5640 5657 5659 5665 5665 5666 5664 5654 5661 5657 5658 5663 5671 5672 5666 5667 5645 5641 5627 5642 5652 5648 5643 5647 5644 5619 5619 5617 5617 5615 5603 5594 5580 5564 5555 5545 5535
5570 5580 5590 5581 5592 5603 5612 5626 5631 5642 5656 5659 5654 5652 5656 5645 5649 5646 5654 5660 5665 5660 5660 5654 5632 5640 5644 5643 5639 5634 5629 5630 5627 5624 5617 5613 5606 5602 5596 5585 5569 5557 5546 5535 5523
5566 5577 5582 5592 5598 5598 5604 5620 5627 5640 5647 5648 5642 5644 5648 5641 5647 5645 5648 5649 5647 5654 5650 5643 5627 5632 5626 5632 5630 5621 5619 5621 5618 5615 5611 5607 5600 5596 5586 5575 5563 5552 5538 5525 5514
5559 5571 5581 5588 5587 5592 5601 5620 5630 5640 5643 5646 5644 5637 5636 5643 5649 5652 5653 5650 5653 5650 5641 5636 5625 5613 5615 5619 5623 5603 5610 5615 5610 5605 5602 5601 5598 5587 5577 5569 5555 5542 5534 5523 5510